Flag for Germany Weather past 2 weeks in Riesa, Saxony, Germany

Now
49 °F

Overcast.


Feels Like: 45 °F
Forecast: 41 / 48 °F
Wind: 8 mph from Southwest

Location: Dresden-Klotzsche

Current Time: Mar 29, 2015 at 8:56:55 AM

Latest Report: Mar 29, 2015 at 8:00 AM


Visibility: 16 mi

Pressure: 29.72 "Hg

Humidity: 88%

Dew point: 45 °F

Location of RiesaLocation

Historic Weather in Riesa — Graph

°F

Riesa temperature yesterday

Maximum temperature yesterday: 47 °F (at 5:00 PM)
Minimum temperature yesterday: 40 °F (at 7:00 AM)
Average temperature yesterday: 43 °F

Past Weeks' High & Low Weather Summary

 TemperatureHumidityPressure
High64 °F (Mar 25, 3:00 PM)99% (Mar 27, 12:00 AM)30.43 "Hg (Mar 27, 12:00 AM)
Low26 °F (Mar 23, 3:00 AM)26% (Mar 19, 4:00 PM)29.62 "Hg (Mar 26, 2:00 AM)
Average44 °F70%30.13 "Hg
* Reported Mar 14 6:00 AM — Mar 29 7:00 AM, Riesa, Weather by CustomWeather, © 2015

Note: Actual official high and low records may vary slightly from our data, if they occured in-between our weather recording intervals... More about our weather records

Advertising

Riesa weather history for previous 24 hours

 ConditionsComfort  
Time TempWeatherWind HumidityBarometerVisibility
7:00 AM
Sun, Mar 29
45 °FLight rain. Overcast.6 mph95%29.73 "Hg9 mi
6:00 AM43 °FLight rain. Low clouds.6 mph97%29.76 "Hg6 mi
5:00 AM44 °FOvercast.6 mph91%29.80 "Hg11 mi
4:00 AM43 °FOvercast.7 mph91%29.82 "Hg11 mi
3:00 AM44 °FRain. Low clouds.6 mph80%29.86 "Hg12 mi
1:00 AM44 °FLight rain. Overcast.6 mph75%29.88 "Hg19 mi
12:00 AM42 °FLight rain. Overcast.5 mph73%29.92 "Hg19 mi
11:00 PM
Sat, Mar 28
43 °FOvercast.6 mph61%29.94 "Hg22 mi
9:00 PM42 °FOvercast.5 mph62%29.98 "Hg25 mi
8:00 PM42 °FPassing clouds.5 mph63%30.00 "Hg25 mi
7:00 PM43 °FPassing clouds.5 mph63%30.01 "Hg25 mi
6:00 PM46 °FPassing clouds.2 mph53%30.02 "Hg25 mi
5:00 PM47 °FPassing clouds.2 mph50%30.03 "Hg25 mi
3:00 PM47 °FPartly sunny.3 mph52%30.09 "Hg22 mi
2:00 PM47 °FOvercast.5 mph53%30.11 "Hg17 mi
1:00 PM45 °FOvercast.5 mph66%30.14 "Hg14 mi
12:00 PM44 °FOvercast.6 mph70%30.16 "Hg14 mi
11:00 AM45 °FOvercast.5 mph71%30.17 "Hg12 mi
9:00 AM42 °FOvercast.6 mph80%30.19 "Hg11 mi
8:00 AM41 °FOvercast.6 mph83%30.19 "Hg10 mi
Weather by CustomWeather, © 2015

See weather overviewHow to use our weather pages